sat.trackr.live / text

‹ back to catalog

STARLINK-3354

NORAD 51146 · 2022-005AU

PAYLOAD ACTIVE UNKNOWN

§ Identity

Operator
Country
US
Launch date
2022-01-19
Launch site
AFETR
Launch vehicle
Mass (kg)
RCS (m²)

Purposes: comms

External: N2YO · Heavens-Above · Gunter

§ Orbital elements

Epoch: 2026-09-20T03:38:48.355584Z

Period
93.85 min
Inclination
53.1587°
Eccentricity
0.0001176
Mean motion
15.34385042 rev/d
Perigee alt
461.9 km
Apogee alt
463.6 km
Semi-major
6,840.9 km
B*
1.9931e-5
RAAN
131.0137°
Arg perigee
90.4690°
Mean anomaly
269.6448°
Rev number
25,829

§ Raw data

STARLINK-33541 51146U 22005AU  26263.15194856  .00000297  00000+0  19931-4 0  99982 51146  53.1587 131.0137 0001176  90.4690 269.6448 15.34385042258297

JSON: /api/v1/satellites/51146 · /tle

For live sub-satellite position, see the globe view (requires WebGL).

§ Visibility from observer

Set your observer location to see the next 7 days of passes ≥ 10°. The values pass through the URL so the page stays shareable.

No JS? Fill the form by hand. The geolocation button needs JavaScript.